Regional Weather Roundup
Issued by NWS

Home | Current Version | Previous Version | Graphics & Text | Print | Product List | Glossary On
Versions: 1 2 3 4 5 6 7 8 9 10 11 12 13 14 15 16 17 18 19 20 21 22 23 24 25 26 27 28
000
ASUS45 KCYS 240010
RWRWY

WYOMING REGIONAL WEATHER ROUNDUP
NATIONAL WEATHER SERVICE CHEYENNE WY
600 PM MDT FRI JUN 23 2017

NOTE:  "FAIR" INDICATES FEW OR NO CLOUDS BELOW 12,000 FEET
WITH NO SIGNIFICANT WEATHER AND/OR OBSTRUCTIONS TO VISIBILITY.

WYZ001-240100-
YELLOWSTONE NATIONAL PARK

CITY           SKY/WX    TMP DP  RH WIND       PRES   REMARKS
LK YELLOWSTONE   N/A     59  29  31 SE5       30.34S
6HR MIN TEMP:  52; 6HR MAX TEMP:  61;

W YELLOWSTONE  NOT AVBL

$$
WYZ002>013-054>058-071-098>099-240100-
NORTHERN WYOMING

CITY           SKY/WX    TMP DP  RH WIND       PRES   REMARKS
JACKSON        SUNNY     70  21  16 CALM      30.25
CODY           FAIR      66  32  28 N10       30.25F
GREYBULL       FAIR      74  26  16 N21       30.18S
6HR MIN TEMP:  67; 6HR MAX TEMP:  75;

WORLAND        FAIR      71  26  18 VRB5      30.19S
6HR MIN TEMP:  64; 6HR MAX TEMP:  73;

SHERIDAN       FAIR      67  34  29 NW12      30.23F
6HR MIN TEMP:  63; 6HR MAX TEMP:  70;

BUFFALO        FAIR      61  32  33 N9G24     30.28R
6HR MIN TEMP:  60; 6HR MAX TEMP:  65;

GILLETTE         N/A     63  31  30 N16       30.23S
6HR MIN TEMP:  62; 6HR MAX TEMP:  70;

NEWCASTLE      FAIR      64  27  24 NW20G26   30.22S

$$
WYZ014>020-022>026-101>103-240100-
CENTRAL WYOMING

CITY           SKY/WX    TMP DP  RH WIND       PRES   REMARKS
BIG PINEY      FAIR      73  22  14 NW10      30.26R
6HR MIN TEMP:  60; 6HR MAX TEMP:  75;

PINEDALE       FAIR      70  23  17 NW12      30.27S
DUBOIS         FAIR      63  32  31 SE14      30.26S
LANDER         FAIR      68  36  30 CALM      30.20F
6HR MIN TEMP:  59; 6HR MAX TEMP:  70;

RIVERTON       FAIR      68  29  23 NE13      30.22F
6HR MIN TEMP:  59; 6HR MAX TEMP:  69;

CASPER         FAIR      68  31  25 E13       30.23R
6HR MIN TEMP:  60; 6HR MAX TEMP:  70;

DOUGLAS        FAIR      68  31  25 N14       30.24S
6HR MIN TEMP:  62; 6HR MAX TEMP:  70;


$$
WYZ021-027>030-104>119-240100-
SOUTHERN WYOMING

CITY           SKY/WX    TMP DP  RH WIND       PRES   REMARKS
EVANSTON       FAIR      74  26  16 NW13G21   30.28S
6HR MIN TEMP:  67; 6HR MAX TEMP:  76;

KEMMERER         N/A    N/A N/A N/A NW14G22   30.29R
FORT BRIDGER   FAIR      78  19  11 NW22      30.29S
ROCK SPRINGS   FAIR      76  23  14 W17G28    30.21F
6HR MIN TEMP:  64; 6HR MAX TEMP:  77;

DIXON          FAIR      78  25  13 NW8       30.23S
RAWLINS        NOT AVBL
SARATOGA       FAIR      73  27  17 NW14      30.25S
LARAMIE        PTSUNNY   62  39  42 E16       30.27R
6HR MIN TEMP:  61; 6HR MAX TEMP:  71;

CHEYENNE       PTSUNNY   61  42  49 SE10      30.26S
6HR MIN TEMP:  58; 6HR MAX TEMP:  67;

TORRINGTON     FAIR      72  26  18 NW14G30   30.18S
6HR MIN TEMP:  65; 6HR MAX TEMP:  74;

PINE BLUFFS    FAIR      68  37  32 CALM      30.23S

$$




USA.gov is the U.S. government's official web portal to all federal, state and local government web resources and services.